Find Starlink 11329

NORAD ID: 61881 Int'l Des: 2024-204 Owner: SPXS Country: US Constellation: starlink operational
別名: STARLINK-11329 [DTC] celestrak
LEOCIRCULAR

現在のビュー

3D地球を読み込み中...

About Starlink 11329

Starlink 11329 (NORAD 61881) is a starlink constellation satellite (v2 mini d2c) launched Nov 9, 2024 by SPXS of US. It operates in LEO, CIRCULAR orbit with a mass of 960.00 kg.

次回通過

Passes for default location (London). Set your location on the main map for personalized predictions.

高度履歴

Loading altitude history...

軌道要素

1 61881U 24204H 26265.74009469 .00000465 00000-0 86909-5 0 9998
2 61881 53.1597 104.8717 0000952 103.8154 256.2970 15.69707397107869
Epoch: Sep 22, 2026 • Age: 11 hours

現在のステータス

高度 359.8 km
遠地点 / 近地点 N/A
速度 7.70 km/s
衛星直下点 20.24°N, 172.18°W
打ち上げ日 Nov 9, 2024
運用期間 1.8 years
タイプ internet

技術仕様

分類 Payload
質量 960.00 kg
乾燥質量 910.00 kg
長さ 0.30 m
スパン 29.00 m
形状 ? Box + pan
製造者 SPXS
バスタイプ Starlink V2MD
フェーズステータス In Orbit
所有者/国 SPXS/US

Most Searched